Regional Weather Roundup
Issued by NWS Jackson, KY

Home | Current Version | Previous Version | Text Only | Print | Product List | Glossary On
Versions: 1 2 3 4 5 6 7 8 9 10 11 12 13 14 15 16 17 18 19 20 21 22 23 24 25 26 27 28 29 30 31 32 33 34 35 36 37 38 39 40 41 42 43 44 45 46 47 48 49 50
000
ASUS43 KJKL 090010
RWRJKL

EAST KENTUCKY HOURLY WEATHER ROUNDUP
NATIONAL WEATHER SERVICE JACKSON KY
700 PM EST MON FEB 08 2016

NOTE: "FAIR" INDICATES FEW OR NO CLOUDS BELOW 12,000 FEET WITH
NO SIGNIFICANT WEATHER AND/OR OBSTRUCTIONS TO VISIBILITY.

* THESE REPORTS ARE NOT UNDER NWS QUALITY CONTROL AND MAY NOT
  REPORT WEATHER SUCH AS PRECIPITATION AND FOG.

KYZ079-080-083-085-087-088-110-112-115-119-120-090100
...EASTERN KENTUCKY...

CITY           SKY/WX    TMP DP  RH WIND       PRES   REMARKS
JACKSON        LGT SNOW  32  28  85 W6        29.70R FOG     WCI  26
6HR MIN TEMP:  32; 6HR MAX TEMP:  41; 6HR PCP:  0.14;

LONDON         LGT SNOW  32  28  85 SW7       29.74R FOG     WCI  26
6HR MIN TEMP:  32; 6HR MAX TEMP:  39; 6HR PCP:  0.02;

SOMERSET*      LGT SNOW  32  30  93 W9        29.78R WCI  24
MONTICELLO*    LGT SNOW  31  29  92 NW17G29   29.80R VSB 1   WCI  19
6HR MIN TEMP:  31; 6HR MAX TEMP:  40; 6HR PCP:  0.01;

WILLIAMSBURG*  CLOUDY    32  32 100 CALM      29.75S
MIDDLESBORO*   FLURRIES  35  29  80 NW6       29.75S WCI  30
6HR MIN TEMP:  34; 6HR MAX TEMP:  42;

HARLAN APT*    CLOUDY    34  30  86 W13G18    29.72R WCI  25
HAZARD APT*    LGT SNOW N/A N/A N/A W9        29.71R
BLACK MTN*       N/A     25  25 100 NE2         N/A
BIG SANDY*     PTCLDY    35  30  83 SW5       29.69R WCI  31
6HR MIN TEMP:  33; 6HR MAX TEMP:  47;

MOREHEAD APT*  CLOUDY    36  28  75 W7        29.72R WCI  30
$$

KYZ035-036-041-042-044-050-067-078-099-090100
...CENTRAL KENTUCKY...

CITY           SKY/WX    TMP DP  RH WIND       PRES   REMARKS
MT STERLING*   LGT SNOW  32  32 100 W13       29.73R WCI  22
DANVILLE*      LGT SNOW  32  28  86 W12G23    29.76R WCI  23
RICHMOND*      CLOUDY    32  28  86 W13       29.73S WCI  22
LEXINGTON      CLOUDY    32  29  88 W13       29.73R WCI  22
6HR MIN TEMP:  32; 6HR MAX TEMP:  40; 6HR PCP:  0.03;

FRANKFORT      LGT SNOW  30  26  85 NW12G20   29.74R FOG     WCI  20
6HR MIN TEMP:  30; 6HR MAX TEMP:  41; 6HR PCP:  0.03;

$$

KYZ091>093-OHZ055-061-077-WVZ005-015-034-035-042-090100
...SOUTHERN OHIO/WEST VIRGINIA...

CITY           SKY/WX    TMP DP  RH WIND       PRES   REMARKS
COVINGTON      LGT SNOW  30  28  93 W20G29    29.70R FOG     WCI  18
COLUMBUS       LGT SNOW  34  34 100 CALM      29.63R FOG
DAYTON         LGT SNOW  32  30  92 NW14      29.66R FOG     WCI  22
WILMINGTON     LGT SNOW  33  31  92 W7        29.64R FOG     WCI  27
HUNTINGTON     MOCLDY    36  30  79 SW7       29.68R WCI  30
CHARLESTON     CLOUDY    34  31  88 SW10      29.67R WCI  26
PINEVILLE*       N/A     33  30  88 MISG      29.72R
BECKLEY        MOCLDY    30  26  85 W6        29.63R WCI  24
$$

VAZ002-007-008-TNZ017-027-036-066-071-090100
...SOUTHWEST VIRGINIA/EAST TENNESSEE...

CITY           SKY/WX    TMP DP  RH WIND       PRES   REMARKS
BRISTOL        FLURRIES  35  30  82 W8        29.71R WCI  29
KNOXVILLE      CLOUDY    40  22  48 SW13      29.76R WCI  32
OAK RIDGE      CLOUDY    39  26  59 W5        29.77S
CROSSVILLE     LGT SNOW  32  28  85 W16G24    29.76R VSB 1   WCI  21
NASHVILLE      LGT SNOW  32  27  80 NW12G22   29.89R VSB 1   WCI  23
$$

...KEY TO REMARKS...
VSB - VISIBILITY IN MILES
WCI - WIND CHILL INDEX
HX  - HEAT INDEX

$$



USA.gov is the U.S. government's official web portal to all federal, state and local government web resources and services.